Location: Goll?ig?dem
(16.6773°N, 80.7332°E)
Time: 06:38:36
(UTC+00:00)

Okean 1 Rocket - Pass Details

Date: 21 April 2021
Orbit: 607 x 634 km, 82.5° (Epoch: 05 May)

Event Time Altitude Azimuth Distance (km) Brightness Sun altitude
Rises 23:32:00 0° 333° (NNW) 2,902 6.4 -11.3°
Reaches altitude 10° 23:34:42 10° 317° (NW) 1,989 5.4 -10.7°
Maximum altitude 23:37:56 20° 269° (W) 1,428 4.3 -9.9°
Drops below altitude 10° 23:41:09 10° 222° (SW) 1,974 5.1 -9.2°
Sets 23:43:50 0° 205° (SSW) 2,872 6.1 -8.6°
